Regional Weather Roundup
Issued by NWS Northern Indiana

Home | Current Version | Previous Version | Graphics & Text | Print | Product List | Glossary On
Versions: 1 2 3 4 5 6 7 8 9 10 11 12 13 14 15 16 17 18 19 20 21 22 23 24 25 26 27 28 29 30 31 32 33 34 35 36 37 38 39 40 41 42 43 44 45 46 47 48 49 50
000
ASUS43 KIWX 311010
RWRIWX

KIWX WEATHER ROUNDUP
NATIONAL WEATHER SERVICE NORTHERN INDIANA
600 AM EDT FRI OCT 31 2014

NOTE: "FAIR" INDICATES FEW OR NO CLOUDS BELOW 12,000 FEET WITH NO
SIGNIFICANT WEATHER AND/OR OBSTRUCTIONS TO VISIBILITY.

* THESE STATIONS ARE NOT UNDER NWS QUALITY CONTROL. THEY ALSO MAY NOT
  REPORT WEATHER SUCH AS PRECIPITATION OR FOG.

INZ001>027-311100-
NORTHERN INDIANA

CITY           SKY/WX    TMP DP  RH WIND       PRES   REMARKS
GARY*          LGT RAIN  45  36  70 NW15G32   30.03R
VALPARAISO     LGT RAIN  42  39  89 N12       29.99S
MICHIGAN CITY* DRIZZLE   41  34  75 NW16G26   30.00R
LAPORTE*       LGT RAIN  44  41  91 NW14G20   29.99R
KNOX*          CLOUDY    43  39  85 NW7       29.98S
SOUTH BEND     LGT RAIN  44  40  85 NW17      29.97S
GOSHEN         LGT RAIN  44  39  82 W8        29.94F
MONTICELLO*    CLOUDY    43  39  84 W9        29.98F
LOGANSPORT*    CLOUDY    41  37  87 SW6       29.98F
ROCHESTER*     CLOUDY    45  39  81 W7        29.97S
WARSAW*        DRIZZLE   41  37  87 W5        29.95S
ANGOLA*        CLOUDY    45  37  76 CALM      29.92F
FORT WAYNE     CLOUDY    41  38  89 SW6       29.96F
HUNTINGTON*    CLOUDY   N/A N/A N/A W3        29.96S
PERU/GRISSOM   CLOUDY    43  43 100 W8        29.97F
MARION*        CLOUDY    41  36  83 W5        29.98F

$$
INZ028>050-311100-
CENTRAL INDIANA

CITY           SKY/WX    TMP DP  RH WIND       PRES   REMARKS
LAFAYETTE      CLOUDY    43  39  86 W6        30.00F
KOKOMO*        CLOUDY    43  36  75 W8        29.99S
MUNCIE*        CLOUDY    43  36  76 W6        29.97F
INDIANAPOLIS   CLOUDY    43  38  82 NW6       29.99F

$$
MIZ043>046-050>051-056>058-064>065-071>073-077>080-311100-
SOUTHWEST LOWER MICHIGAN

CITY           SKY/WX    TMP DP  RH WIND       PRES   REMARKS
BATTLE CREEK   LGT RAIN  43  38  82 NW7       29.92S
BENTON HARBOR  LGT RAIN  42  37  82 NW12G24   29.97R
COLDWATER*     LGT RAIN  44  40  87 SW5       29.92S
HILLSDALE*     CLOUDY    43  39  86 SW6       29.91F
HOLLAND        RAIN      43  39  86 VRB5      29.96S
GRAND RAPIDS   LGT RAIN  42  41  96 NW14      29.93S
KALAMAZOO      LGT RAIN  43  38  82 NW18      29.93S
STURGIS*       LGT RAIN  43  39  87 W7        29.92S
THREE RIVERS*  LGT RAIN  45  42  89 NW6       29.93F

$$
OHZ001>008-015>018-024>025-311100-
NORTHWEST OHIO

CITY           SKY/WX    TMP DP  RH WIND       PRES   REMARKS
WAUSEON*       CLOUDY    45  36  70 SW9       29.93F
DEFIANCE       MOCLDY    43  36  76 SW6       29.95F
FINDLAY        CLOUDY    44  36  73 SW7       29.94F
TOLEDO EXPRESS CLOUDY    43  35  73 SW6       29.94F
TOLEDO METCALF CLOUDY    44  35  70 SW6       29.95F

$$
AND FOR LAKE MICHIGAN COASTAL AND OPEN LAKE BUOY OBSERVATIONS

STATION/POSITION TEMP    WIND        PRES    VSBY  WAVE
                 AIR SEA DIR/SP/G                  HT/PER
                 (F)     (DEG/KT/KT) (MB)    (MI)  (FT/S)
CALUMET HARBOR    41     300/ 11/ 16 1015.6R
MICHIGAN CITY     44     320/ 29/ 33   N/A
SAINT JOSEPH      45     310/ 18/ 25 1015.6S
SOUTH LAKE BUOY   45 53  320/ 27/ 33 1015.2R         6/ 6

$$
&&



USA.gov is the U.S. government's official web portal to all federal, state and local government web resources and services.